Retour au catalogue

STARLINK-35343

ActifCommunicationsVLEO
NORAD 67334·PAYLOAD·🇺🇸 United States

Lancé Jan 9, 2026 depuis Cape Canaveral Space Force Station

Loading…

Prochains Passages (prochaines 24 heures)

TLE

FraisSource: CelesTrak SupGP

Époque: Sep 15, 2026, 03:29 UTC

1 67334C 26003A   26258.14562500 -.00028573  00000+0 -10351-2 0  2586
2 67334  43.0000 237.1720 0001219 266.7036 256.0614 15.27585252    14

Suivez STARLINK-35343 en temps réel avec AllMySat

Download on the App Store